Dewpoint
-1 -1 -2 -2 2 9 12 13 12 12 13 12 11 11 10 10 10 9 8 9 9 9 8 8 8 8 7 6 4 0 -5 -12 -16 -18 -16 -15 -15 -16 -16 -17 -18 -18 -18
-3 -0 -1 -2 -1 8 11 13 12 12 13 13 12 12 11 11 10 9 8 8 8 9 8 8 8 8 6 5 3 -0 -4 -10 -17 -17 -15 -12 -11 -14 -14 -14 -15 -16 -16
-4 -1 0 -2 0 9 9 13 12 12 12 12 12 12 11 10 9 9 8 8 5 9 8 8 7 8 7 5 3 1 -2 -8 -14 -16 -9 -9 -7 -12 -13 -13 -13 -14 -14
-6 -3 0 -1 -2 6 9 11 11 12 12 13 12 11 11 9 9 9 8 6 5 6 8 8 7 7 7 6 4 3 -0 -7 -12 -14 -12 -7 -8 -7 -9 -12 -12 -12 -12
-8 -6 0 0 -1 2 8 11 12 11 12 13 12 11 11 10 10 9 8 7 7 7 8 8 7 7 7 6 4 4 1 -4 -10 -15 -14 -12 -10 -8 -10 -9 -11 -12 -11
-11 -7 -2 0 0 5 8 11 11 11 12 12 12 12 11 11 10 9 9 7 8 7 7 8 7 8 8 6 5 4 2 -1 -6 -13 -14 -11 -10 -10 -9 -8 -10 -9 -10
-16 -10 -5 -0 1 5 9 10 10 9 11 12 12 12 11 11 10 9 9 7 7 6 4 5 7 7 7 6 5 4 3 0 -1 -8 -15 -11 -9 -9 -8 -9 -9 -7 -9
-14 -9 -6 -3 0 4 11 11 10 10 11 11 11 11 11 11 10 10 9 7 4 5 5 4 7 7 6 6 5 5 4 1 0 -3 -12 -13 -10 -11 -10 -10 -10 -8 -9
-10 -12 -10 -5 1 4 9 9 10 9 10 10 10 10 10 10 10 10 9 7 5 3 4 4 4 6 6 6 5 5 4 2 1 -1 -7 -12 -13 -12 -9 -11 -11 -10 -8
-7 -8 -7 -4 1 4 7 10 8 10 9 10 10 10 11 10 9 9 10 9 7 5 3 5 4 4 5 6 5 4 4 2 1 1 -3 -8 -12 -13 -11 -10 -11 -11 -9
-7 -5 -4 -0 1 4 6 7 8 10 10 9 8 10 10 9 8 8 10 7 8 6 3 3 3 2 3 6 6 4 2 1 -1 0 -1 -4 -8 -12 -11 -10 -11 -11 -11
-6 -4 -2 -1 1 5 8 7 8 9 9 9 9 10 9 9 9 9 9 9 9 8 4 1 2 -1 0 3 4 3 1 -1 -2 -1 -2 -4 -8 -10 -10 -10 -11 -11 -11
-1 -2 -2 -1 2 5 8 6 7 9 9 8 7 9 9 7 6 9 9 9 10 9 6 3 3 -0 -1 2 1 -0 -2 -3 -4 -3 -3 -5 -8 -9 -10 -11 -11 -10 -11
-2 1 2 0 4 6 7 8 6 4 8 4 5 7 7 7 9 9 9 9 9 9 8 5 4 3 1 -0 0 -1 -2 -3 -4 -4 -4 -5 -8 -8 -9 -12 -11 -11 -10
-4 -2 1 4 5 6 8 8 7 8 9 8 6 5 8 9 9 9 9 9 9 9 9 8 6 5 4 1 -0 -2 -2 -3 -5 -3 -3 -5 -7 -7 -8 -12 -11 -10 -10
-5 -4 -0 4 5 6 6 8 7 7 5 8 7 9 9 9 9 9 9 8 9 9 8 9 6 6 5 4 -0 -2 -2 -3 -5 -5 -4 -5 -6 -7 -10 -13 -12 -11 -11
-6 -5 -2 2 5 7 6 7 7 7 7 8 8 8 8 9 8 8 8 8 9 9 8 8 7 7 7 4 1 -1 -2 -4 -6 -6 -5 -6 -7 -7 -13 -13 -12 -12 -13
-6 -5 -3 1 4 6 7 8 8 8 8 8 8 8 8 8 7 8 8 8 8 8 9 9 9 8 7 7 3 1 0 -4 -6 -7 -6 -7 -8 -8 -13 -13 -13 -13 -16
-6 -5 -4 -1 3 5 7 8 8 8 8 7 8 8 7 6 7 7 8 7 8 8 8 8 8 8 8 6 4 2 -2 -5 -7 -7 -8 -8 -8 -10 -14 -13 -13 -13 -15
-7 -5 -4 -0 4 5 6 7 7 7 6 7 7 7 6 7 8 7 7 8 7 8 8 8 8 8 7 7 5 2 -2 -3 -9 -9 -9 -8 -9 -13 -14 -14 -12 -15 -14
-7 -4 -2 0 3 5 6 7 7 7 7 7 7 7 7 7 7 7 7 7 7 7 8 7 7 7 7 7 5 4 2 -6 -7 -9 -8 -9 -12 -13 -13 -13 -15 -15 -11
-5 -3 -2 -0 1 4 5 6 6 6 6 6 6 6 6 6 7 7 7 6 7 7 7 6 6 6 5 5 5 5 0 -1 -7 -9 -9 -11 -13 -13 -13 -13 -16 -11 -9
-6 -4 -2 -1 0 2 4 5 6 6 6 6 6 6 6 6 6 6 7 7 7 7 6 6 5 5 5 4 4 3 -0 -7 -8 -9 -10 -12 -7 -5 -13 -15 -11 -9 -4
-6 -5 -3 -2 -0 1 2 4 5 6 6 6 6 6 6 6 6 5 6 6 6 6 6 6 5 5 4 4 4 1 -4 -7 -4 -9 -10 -3 -10 -12 -14 -13 -9 -4 -3
-7 -6 -5 -3 -2 -0 1 3 4 5 6 6 6 6 5 5 5 5 5 5 6 5 5 5 5 5 4 2 1 1 1 -2 -5 -7 -1 -6 -11 -12 -14 -9 -5 -4 -3
-7 -7 -6 -5 -3 -1 -0 1 2 4 4 5 6 6 5 5 5 5 5 4 4 4 4 4 4 4 3 3 2 2 -0 -2 -2 -0 -2 -6 -4 -8 -12 -5 -4 -3 -4
Wind_Speed
26 29 41 33 31 35 48 56 66 53 66 58 56 54 47 43 37 34 44 34 41 42 38 35 35 31 29 29 28 29 29 28 26 26 23 18 14 13 11 10 9 8 8
26 25 31 38 36 39 48 53 63 67 65 62 59 54 50 45 39 35 40 42 41 43 40 39 36 33 31 30 30 31 30 28 26 27 22 12 10 10 9 9 8 7 6
28 27 26 40 35 39 46 53 63 64 64 61 57 54 51 44 43 38 37 43 42 45 43 39 36 33 33 33 31 30 28 30 25 23 11 9 6 13 8 8 7 6 5
31 29 27 32 43 39 41 63 64 64 69 67 60 62 59 50 49 44 39 39 40 47 43 41 39 36 34 33 32 31 27 28 27 24 15 12 10 8 9 9 8 7 5
37 34 31 26 36 37 42 47 51 72 68 62 62 59 58 53 50 47 42 38 41 40 45 42 40 39 36 35 33 30 27 25 24 24 16 10 12 9 9 12 12 9 7
36 33 30 26 29 30 39 35 47 68 61 59 60 58 54 58 53 50 46 40 45 40 44 45 41 40 38 35 33 30 26 24 22 22 14 10 10 11 7 9 11 7 8
35 36 30 27 26 24 33 35 46 55 53 63 59 59 60 60 56 55 51 45 47 46 44 46 46 41 39 36 34 31 27 24 21 21 19 13 11 10 8 6 11 8 8
32 30 28 29 27 25 28 34 39 51 59 67 60 59 59 59 55 53 52 49 49 49 44 44 48 42 40 37 33 30 27 25 22 22 23 19 14 9 7 7 7 8 6
16 30 30 28 26 24 28 38 44 52 49 55 59 56 53 53 53 52 51 47 46 46 43 42 43 42 40 38 35 32 30 26 24 25 24 21 17 12 9 8 8 6 7
14 26 25 27 26 22 22 29 31 41 47 53 48 48 41 43 33 49 51 43 42 43 41 41 41 42 41 38 36 33 30 28 26 25 24 22 20 16 12 10 10 10 8
13 20 22 23 24 20 24 26 32 39 48 41 36 39 39 40 35 39 45 36 46 45 44 44 41 40 40 39 36 33 30 27 25 25 24 23 22 18 15 12 12 12 12
9 12 20 22 23 21 24 30 30 47 42 40 43 41 41 39 34 36 50 44 43 41 40 40 37 36 36 37 36 34 31 29 28 27 26 24 22 20 17 14 14 13 13
11 9 20 19 22 21 23 34 22 38 46 40 36 42 36 29 31 35 36 39 38 37 37 38 35 35 37 38 36 34 31 30 28 27 27 25 22 19 17 16 16 14 13
28 24 7 19 20 21 28 26 38 34 41 36 32 31 40 39 38 37 33 33 35 36 38 38 36 36 39 40 39 36 31 30 29 28 27 24 22 19 17 18 16 15 13
35 28 18 14 16 20 26 31 35 36 33 36 37 38 36 33 34 33 31 30 29 32 37 37 38 38 37 37 36 33 30 30 30 28 27 24 22 20 18 18 17 16 15
33 29 17 11 13 17 25 29 34 32 34 36 35 37 35 34 32 31 30 28 27 29 35 42 39 38 36 35 34 32 31 30 29 29 28 26 23 21 20 20 18 16 13
37 31 17 10 8 14 19 27 29 30 30 31 36 34 32 33 33 31 30 29 29 29 32 39 40 40 38 37 34 30 29 29 28 29 29 27 25 24 24 23 20 16 14
37 28 16 9 7 11 17 24 28 30 31 32 32 31 31 32 33 31 29 29 30 29 32 33 36 39 38 34 35 32 31 29 29 29 28 26 27 27 26 24 22 19 16
35 26 16 10 10 16 17 25 26 29 30 30 31 28 29 31 32 30 28 27 28 27 28 29 31 34 37 36 35 34 31 29 29 29 28 26 26 27 27 24 21 19 16
31 26 20 15 14 14 21 23 25 22 23 25 25 25 28 28 29 27 26 25 25 26 26 26 26 30 38 37 34 35 31 30 28 28 28 28 27 27 26 22 20 18 15
34 32 31 26 18 12 13 18 21 23 22 23 23 24 24 27 27 26 26 27 27 26 28 26 26 28 31 36 36 35 34 33 30 32 31 30 27 24 23 21 19 16 15
39 37 36 30 24 18 14 16 17 19 19 19 20 21 22 23 23 23 25 26 28 27 27 28 29 29 32 32 34 35 33 31 32 32 31 28 27 23 23 23 20 17 14
36 34 33 29 26 21 16 15 14 14 12 13 17 17 17 19 21 23 25 27 28 28 28 29 29 29 30 30 31 33 30 28 29 29 30 28 28 28 25 22 19 17 13
35 32 30 29 27 22 18 14 15 17 13 12 13 15 16 17 18 20 20 23 27 27 28 29 30 28 30 31 31 31 31 30 27 28 29 24 29 27 27 25 20 15 7
30 29 27 25 24 20 17 13 10 14 16 15 14 15 16 17 18 20 20 23 25 27 28 27 27 27 28 30 31 34 36 36 34 35 30 32 33 28 24 21 15 14 13
26 25 24 21 20 18 15 10 7 5 10 17 20 19 19 18 20 20 22 22 22 24 25 27 28 26 26 29 32 34 36 36 39 37 36 35 27 26 23 18 17 17 12
Wind_Direction
252 244 234 231 224 222 211 191 189 182 193 188 182 182 171 171 175 185 181 175 183 184 184 182 183 180 177 174 172 169 166 158 160 150 136 129 132 136 136 137 133 124 112
247 241 236 230 224 220 213 192 193 192 198 196 188 189 185 187 190 188 187 183 186 183 183 183 185 182 177 176 175 176 170 168 161 153 140 122 127 140 144 146 141 133 121
246 236 240 223 223 217 215 202 191 188 191 195 187 185 183 178 177 173 179 184 193 183 185 187 187 187 186 183 182 183 184 170 163 160 149 141 159 167 161 166 161 154 143
242 241 235 223 223 221 220 205 191 190 196 196 192 181 183 177 185 188 191 190 192 189 188 189 191 194 192 188 187 187 185 183 174 172 163 157 197 159 163 189 185 184 186
232 238 228 234 224 224 221 205 191 192 189 196 199 186 185 191 188 189 189 187 185 190 187 189 191 196 195 192 191 186 188 190 189 179 170 161 147 159 159 179 195 200 210
224 234 228 229 223 224 218 215 193 187 186 193 198 197 191 190 187 186 187 186 181 182 188 189 192 200 198 194 193 191 190 190 192 189 175 164 153 160 154 148 169 186 206
216 224 228 222 228 222 210 207 191 199 197 198 198 199 194 194 193 191 192 187 187 188 189 190 194 199 199 196 194 194 192 195 194 194 190 179 173 167 171 169 162 178 192
213 211 222 218 222 215 206 205 176 178 184 195 193 194 197 194 194 196 195 192 191 189 190 188 196 200 200 198 196 196 196 199 198 194 197 194 184 178 186 189 187 169 171
225 212 224 220 216 210 205 202 188 194 190 192 185 192 195 196 197 198 197 194 195 194 191 191 195 200 201 198 198 199 200 203 204 201 201 201 202 204 208 206 202 197 183
240 200 208 206 209 205 202 200 199 179 178 185 185 192 196 196 203 204 198 196 199 197 194 196 195 198 200 198 199 201 204 206 210 209 206 208 210 215 214 216 214 212 202
229 200 201 197 196 192 191 195 196 173 188 192 190 201 200 207 213 215 192 194 207 200 199 199 198 198 198 200 201 202 206 209 213 214 212 213 216 220 222 225 220 218 224
237 210 193 188 188 182 182 189 191 187 186 191 196 202 194 193 198 201 193 195 201 200 203 202 200 199 198 200 202 204 207 210 214 214 214 216 216 219 224 225 219 219 227
352 221 186 181 178 175 175 182 172 172 185 179 193 187 185 182 193 205 200 202 205 204 202 202 201 200 200 200 202 208 208 212 214 214 216 219 217 219 221 220 217 219 224
7 20 139 165 168 169 173 179 190 194 181 178 179 192 194 194 200 201 201 203 206 210 203 201 202 202 203 202 205 209 208 211 213 216 219 219 220 221 222 221 218 218 225
7 11 27 66 157 160 166 169 171 177 184 179 182 200 203 198 202 200 199 203 209 208 205 198 201 203 208 207 208 210 211 213 215 215 215 216 218 220 223 220 220 221 224
2 5 23 65 109 144 163 165 174 181 189 192 188 193 200 198 201 203 202 200 209 206 204 200 202 204 207 207 207 212 212 216 218 218 216 215 216 217 216 215 215 219 224
356 3 17 38 106 135 159 171 175 183 188 189 188 192 204 203 202 206 206 203 208 207 205 200 203 206 207 206 204 208 214 217 219 220 220 215 214 215 213 211 213 216 216
358 4 17 45 132 146 149 164 179 182 180 181 186 197 200 202 205 205 207 205 209 206 204 205 207 206 208 207 203 204 213 217 219 222 220 219 217 213 214 212 210 209 206
2 7 16 47 103 167 152 163 172 179 182 184 187 201 203 202 203 205 207 207 207 205 209 208 209 209 204 206 204 206 211 214 217 217 218 220 216 217 214 213 213 209 206
4 15 38 66 94 135 172 165 168 186 191 195 199 199 198 203 207 207 207 207 206 207 204 206 209 213 210 206 202 204 209 213 215 214 216 215 214 215 216 213 214 208 205
14 34 51 61 75 103 147 165 167 175 189 194 193 196 200 202 207 204 204 205 204 203 205 202 204 208 210 208 206 207 208 212 212 214 206 209 210 211 212 213 208 206 201
23 33 45 53 64 91 130 153 161 168 180 193 192 194 199 200 199 199 199 204 206 204 204 207 205 207 206 209 208 204 209 215 217 212 208 206 203 206 217 216 203 197 190
20 29 35 45 54 69 98 137 146 157 168 181 182 186 192 194 195 196 201 203 205 207 204 204 205 205 204 206 205 203 206 209 210 212 208 199 208 212 205 199 192 189 193
18 22 29 34 40 49 63 91 146 160 168 178 177 180 185 184 191 194 203 212 203 201 204 200 199 199 200 200 202 201 201 200 200 207 198 214 201 196 198 189 187 189 230
17 22 25 29 33 36 48 64 104 158 174 176 180 180 183 187 190 195 204 206 206 208 205 206 208 208 208 206 208 209 205 202 201 197 204 200 194 192 189 186 194 232 223
16 21 24 27 29 35 39 48 72 136 183 193 193 186 182 188 192 193 195 200 210 213 215 212 208 205 216 213 208 207 203 200 205 205 199 189 200 197 191 211 219 209 223
Height
1388 1389 1394 1397 1401 1403 1410 1409 1421 1428 1435 1444 1453 1463 1473 1484 1490 1496 1503 1511 1516 1523 1530 1536 1542 1547 1551 1556 1560 1565 1568 1572 1577 1581 1585 1590 1593 1595 1597 1599 1600 1601 1602
1383 1383 1384 1390 1393 1394 1401 1397 1410 1417 1425 1433 1446 1456 1469 1478 1486 1492 1498 1506 1511 1519 1527 1534 1540 1545 1549 1554 1558 1563 1567 1572 1577 1580 1585 1591 1597 1596 1598 1599 1601 1601 1602
1378 1378 1378 1381 1385 1387 1392 1395 1404 1414 1420 1425 1440 1453 1463 1474 1483 1490 1496 1503 1508 1517 1524 1531 1538 1543 1546 1551 1557 1562 1566 1570 1576 1581 1584 1589 1593 1596 1598 1600 1601 1602 1602
1373 1372 1372 1374 1376 1378 1385 1395 1392 1404 1414 1420 1429 1439 1447 1461 1475 1483 1491 1497 1505 1514 1522 1529 1536 1541 1544 1549 1555 1560 1566 1570 1573 1579 1582 1584 1587 1592 1597 1599 1600 1601 1602
1369 1368 1367 1368 1370 1375 1376 1386 1391 1398 1405 1409 1420 1432 1438 1457 1469 1478 1486 1494 1503 1510 1518 1526 1532 1537 1543 1548 1553 1559 1564 1570 1574 1578 1581 1584 1587 1590 1591 1594 1597 1600 1601
1360 1362 1364 1365 1365 1367 1370 1380 1378 1384 1391 1404 1418 1431 1439 1448 1461 1472 1482 1490 1499 1506 1514 1522 1529 1535 1541 1546 1552 1558 1563 1568 1573 1577 1581 1584 1586 1588 1590 1592 1595 1598 1599
1349 1354 1356 1359 1359 1363 1367 1372 1380 1386 1395 1405 1416 1430 1436 1441 1451 1464 1475 1483 1492 1501 1508 1517 1524 1531 1538 1544 1550 1556 1562 1566 1571 1576 1579 1582 1585 1587 1590 1591 1593 1596 1597
1338 1345 1350 1353 1354 1360 1365 1372 1377 1387 1394 1397 1413 1426 1432 1438 1448 1460 1471 1478 1485 1494 1504 1513 1521 1528 1535 1542 1549 1555 1561 1565 1569 1574 1577 1580 1584 1587 1589 1590 1592 1594 1595
1332 1340 1347 1349 1351 1357 1363 1370 1373 1382 1394 1399 1405 1421 1429 1438 1446 1457 1468 1476 1485 1492 1500 1509 1517 1525 1532 1540 1546 1552 1558 1563 1568 1571 1574 1578 1582 1585 1587 1589 1591 1592 1593
1334 1336 1340 1344 1348 1354 1361 1367 1376 1370 1391 1395 1403 1417 1429 1431 1446 1454 1463 1469 1482 1489 1497 1506 1514 1521 1528 1537 1543 1549 1555 1560 1565 1569 1573 1576 1580 1583 1585 1587 1589 1591 1592
1328 1330 1336 1341 1346 1351 1357 1366 1376 1381 1391 1399 1403 1416 1427 1436 1444 1453 1459 1468 1475 1486 1494 1501 1508 1517 1525 1533 1540 1546 1551 1556 1563 1568 1572 1573 1578 1581 1584 1585 1587 1589 1590
1329 1329 1335 1340 1345 1350 1356 1363 1375 1384 1393 1399 1409 1417 1429 1436 1443 1452 1458 1469 1476 1482 1489 1498 1507 1514 1522 1530 1536 1542 1549 1553 1559 1565 1569 1571 1575 1577 1581 1583 1585 1586 1588
1332 1332 1336 1341 1346 1350 1355 1365 1372 1380 1392 1400 1409 1416 1427 1436 1445 1453 1460 1465 1471 1478 1487 1496 1503 1511 1519 1526 1533 1538 1544 1549 1555 1561 1565 1568 1572 1575 1578 1581 1582 1584 1586
1342 1332 1335 1341 1348 1352 1357 1362 1372 1383 1390 1398 1408 1420 1429 1435 1443 1451 1457 1463 1470 1476 1484 1494 1501 1509 1515 1522 1528 1534 1540 1545 1550 1556 1561 1565 1569 1572 1575 1578 1580 1582 1583
1349 1344 1342 1343 1351 1356 1361 1368 1377 1388 1395 1402 1412 1422 1428 1436 1443 1449 1455 1462 1469 1476 1480 1488 1498 1503 1511 1519 1524 1531 1536 1541 1546 1552 1557 1562 1565 1569 1572 1575 1577 1580 1581
1360 1354 1349 1350 1352 1357 1366 1371 1379 1385 1395 1403 1411 1421 1427 1433 1440 1447 1453 1460 1467 1472 1478 1486 1492 1499 1508 1515 1520 1526 1532 1537 1543 1549 1553 1557 1562 1566 1569 1572 1575 1577 1580
1364 1359 1356 1356 1357 1361 1365 1373 1378 1386 1394 1400 1409 1416 1423 1429 1437 1444 1451 1457 1463 1470 1476 1483 1491 1497 1504 1509 1516 1523 1529 1534 1540 1546 1551 1553 1557 1562 1565 1569 1572 1575 1578
1372 1367 1364 1362 1363 1365 1369 1372 1379 1386 1392 1400 1407 1415 1420 1428 1436 1442 1449 1455 1461 1467 1473 1479 1486 1493 1500 1506 1512 1518 1526 1532 1537 1543 1548 1550 1553 1558 1561 1566 1569 1572 1575
1376 1372 1368 1365 1366 1369 1371 1376 1381 1386 1394 1401 1407 1413 1419 1427 1435 1439 1446 1453 1459 1464 1469 1476 1482 1488 1493 1502 1508 1515 1523 1528 1534 1539 1543 1547 1551 1555 1559 1563 1566 1570 1571
1384 1377 1371 1367 1367 1370 1375 1380 1384 1390 1395 1400 1406 1413 1420 1426 1432 1437 1443 1451 1457 1462 1467 1473 1479 1483 1489 1498 1504 1512 1519 1525 1531 1536 1540 1544 1547 1551 1557 1561 1564 1566 1568
1384 1375 1369 1367 1368 1373 1377 1382 1386 1391 1396 1402 1407 1412 1417 1423 1429 1434 1441 1447 1452 1459 1465 1470 1476 1482 1488 1495 1502 1509 1514 1521 1526 1531 1535 1540 1545 1551 1555 1557 1561 1564 1567
1381 1376 1372 1373 1375 1377 1379 1383 1387 1391 1395 1399 1404 1410 1415 1420 1427 1433 1439 1445 1451 1457 1463 1468 1473 1479 1486 1493 1498 1504 1511 1517 1522 1528 1532 1538 1544 1550 1552 1556 1559 1562 1565
1392 1388 1383 1382 1381 1382 1383 1386 1389 1393 1397 1402 1407 1411 1417 1422 1427 1433 1438 1443 1449 1455 1459 1465 1471 1476 1482 1488 1495 1501 1509 1514 1521 1526 1531 1536 1542 1546 1550 1554 1557 1560 1563
1400 1396 1392 1389 1387 1387 1387 1389 1393 1396 1400 1404 1409 1413 1418 1421 1427 1433 1438 1443 1448 1453 1458 1463 1469 1474 1479 1485 1490 1498 1504 1512 1518 1524 1529 1534 1540 1545 1547 1550 1554 1558 1562
1409 1404 1401 1398 1396 1394 1393 1393 1394 1398 1402 1406 1410 1414 1418 1423 1428 1432 1438 1443 1449 1454 1458 1462 1468 1473 1478 1484 1489 1493 1499 1505 1511 1517 1523 1529 1534 1540 1546 1551 1555 1558 1560
1416 1411 1409 1406 1404 1402 1400 1400 1400 1402 1404 1407 1410 1414 1419 1423 1428 1433 1437 1444 1449 1453 1456 1461 1466 1470 1477 1482 1487 1492 1498 1503 1507 1512 1516 1526 1534 1541 1545 1550 1552 1555 1557